Satellite-Ground Cal/Val Site Overpasses Predictions

Prediction of Satellite NPP Overpassing Cal/Val Site: Antarctic Dome C

Ground Cal/Val Site Location: Latitude: -75.10, Longitude: 123.35; Satellite-Ground Site NADIR distance within 100 km.

Table of predicted overpasses for the next 14.0 days since TLE Epoch: 11/17/2018
Interval Starting Time Ending Time Minimum Distance Time Minimum Distance (km)
1 11/17/2018 14:36:38 11/17/2018 14:36:53 11/17/2018 14:36:46 86.07
2 11/18/2018 07:38:11 11/18/2018 07:38:38 11/18/2018 07:38:25 38.87
3 11/19/2018 07:19:24 11/19/2018 07:19:45 11/19/2018 07:19:35 71.07
4 11/21/2018 15:01:40 11/21/2018 15:02:03 11/21/2018 15:01:52 58.37
5 11/22/2018 14:42:50 11/22/2018 14:43:15 11/22/2018 14:43:02 50.96
6 11/23/2018 07:44:32 11/23/2018 07:44:51 11/23/2018 07:44:42 74.33
7 11/24/2018 07:25:38 11/24/2018 07:26:06 11/24/2018 07:25:52 33.50
8 11/26/2018 15:08:05 11/26/2018 15:08:12 11/26/2018 15:08:09 96.31
9 11/27/2018 14:49:05 11/27/2018 14:49:34 11/27/2018 14:49:19 15.01


NCC Satellite Cal/Val Overpasses Prediction Service
